Regional Weather Roundup
Issued by NWS State College, PA

Home | Current Version | Previous Version | Graphics & Text | Print | Product List | Glossary Off
Versions: 1 2 3 4 5 6 7 8 9 10 11 12 13 14 15 16 17 18 19 20 21 22 23 24 25 26 27 28 29 30 31 32 33 34 35 36 37 38 39 40 41 42 43 44 45 46 47 48 49 50

000
ASUS41 KCTP 290410
RWRCTP

REGIONAL WEATHER ROUNDUP
NATIONAL WEATHER SERVICE STATE COLLEGE PA
1200 AM EDT FRI MAY 29 2015

Note: "fair" indicates few or no clouds below 12,000 feet with no
significant weather and/or obstructions to visibility.

* = STATION THAT DOES NOT REPORT PRECIPITATION /E.G. RAIN...SNOW...ETC/
    THUNDER OR FOG.

PAZ002>004-007>009-013>016-020>023-029>032-290500-
WESTERN PENNSYLVANIA

CITY           SKY/WX    TMP DP  RH WIND       PRES   REMARKS
ERIE           CLEAR     65  51  60 CALM      30.25F
MEADVILLE      CLEAR     63  54  72 E6        30.27F
FRANKLIN*      CLEAR     61  54  77 NE3       30.29F
NEW CASTLE     FAIR      60  59  97 CALM      30.27S
BEAVER COUNTY  NOT AVBL
BUTLER*        CLEAR     57  54  88 NE3       30.28S
PITTSBURGH INT CLEAR     69  52  54 CALM      30.25F
PITTSBURGH     CLEAR     69  48  47 CALM      30.24F
INDIANA*       PTCLDY    59  55  88 CALM      30.31S
LATROBE        CLEAR     63  59  88 CALM      30.27F
WASHINGTON CO* CLEAR     59  57  94 CALM      30.27S
$$

PAZ004>006-010>012-017>019-024>028-033>037-041-042-045-046-049>053-290500-
CENTRAL PENNSYLVANIA

CITY           SKY/WX    TMP DP  RH WIND       PRES   REMARKS
BRADFORD       CLEAR     54  50  86 CALM      30.33R
DUBOIS         CLEAR     64  53  67 E5        30.29S
CLEARFIELD     CLEAR     57  51  80 N7        30.30R
JOHNSTOWN      CLEAR     65  49  56 NE5       30.31R
ALTOONA        CLEAR     65  51  60 CALM      30.29S
STATE COLLEGE  CLEAR     65  54  67 N3        30.29R
WILLIAMSPORT   CLEAR     61  56  83 W3        30.26S
SELINSGROVE    CLEAR     64  55  72 NW5       30.26S
FT INDIANTOWN  CLEAR     68  54  60 N6        30.24S
CAPITAL CITY   CLEAR     72  53  51 E6        30.24S
HARRISBURG     PTCLDY    73  54  51 CALM      30.23R
YORK           CLEAR     63  61  93 W3        30.24R
$$

PAZ038>040-043-044-047-048-054-055-060>062-067>071-290500-
EASTERN PENNSYLVANIA

CITY           SKY/WX    TMP DP  RH WIND       PRES   REMARKS
SCRANTON       CLEAR     63  53  70 E6        30.29R
MOUNT POCONO   CLEAR     55  32  41 N5        30.30S
ALLENTOWN      CLEAR     68  52  56 N7        30.26R
QUAKERTOWN*    CLEAR     68  52  56 N3        30.26S
READING        CLEAR     71  51  49 CALM      30.24R
LANCASTER      CLEAR     69  55  60 E5        30.23S
COATESVILLE    PTCLDY    72  55  56 N5        30.25S
POTTSTOWN      PTCLDY    70  53  54 CALM      30.25R
BLUE BELL      PTCLDY    66  57  72 CALM      30.23S
DOYLESTOWN     PTCLDY    68  50  52 CALM      30.24R
WILLOW GROVE   NOT AVBL
NORTH PHILA    PTCLDY    73  51  46 NE7       30.24S
PHILADELPHIA   PTCLDY    76  53  44 NE9       30.23R
$$


USA.gov is the U.S. government's official web portal to all federal, state and local government web resources and services.